METEOR 2-17

导读 | 豆包AI

METEOR 2-17是独联体(CIS)发射的第二代“流星”极轨业务气象卫星,于1988年1月30日发射入轨,属于苏联“流星二号”气象卫星系列。该卫星主要用于获取全球云层覆盖、地球辐射等气象数据,搭载可见光红外相机、多通道扫描辐射计等载荷,可为气象预报与大气研究提供基础观测资料,和同系列卫星共同支撑全球气象监测网络。

基本信息
目录编号:
18820
目录名称:
METEOR 2-17
国际标识:
1988-005A
轨道中心:
EARTH
卫星名称:
METEOR 2-17
卫星全名:
--
卫星状态:
在轨 (已飞行13923 天)
发射日期:
1988-01-30 UTC
国别 :
俄罗斯(独联体) (CIS)
星等 :
--
轨道信息
数据来源 国际轨道数据 AOE轨道数据
星历时间 2026-03-13T17:05:11+0800
17小时前
查看轨道信息
2026-03-13T16:00:00+0800
19小时前
查看轨道信息
半长轴 7322.048km 7322.049km
偏心率 0.0016395 0.0016333
轨道倾角 82.542° 82.543°
近地点辐角 354.350° 353.989°
升交点赤经 39.996° 40.033°
平近点角 159.123° 293.787°
近地点 931.906km 931.952km
远地点 955.916km 955.872km
周期 103.922分钟 103.922分钟
每日圈数 13.856512 13.85651
详细信息
使用方式:
暂无
2D轨道图
3D轨道图
轨道高度分析图
轨道倾角分析图
轨道综合分析图
查看轨道综合分析图